Time,TemperatureF,DewpointF,PressureIn,WindDirection,WindDirectionDegrees,WindSpeedMPH,WindSpeedGustMPH,Humidity,HourlyPrecipIn,Conditions,Clouds,dailyrainin,SoftwareType,DateUTC
2013-02-08 00:01:00,25.0,20.0,30.37,North,-999,0.0,-999.0,82,-99.99,,,-99.99,,2013-02-08 06:01:00,
2013-02-08 00:11:00,25.0,20.0,30.37,North,-999,0.0,-999.0,82,-99.99,,,-99.99,,2013-02-08 06:11:00,
2013-02-08 00:21:00,25.0,20.0,30.37,North,-999,0.0,-999.0,82,-99.99,,,-99.99,,2013-02-08 06:21:00,
2013-02-08 00:31:00,25.0,20.0,30.37,North,-999,0.0,-999.0,82,-99.99,,,-99.99,,2013-02-08 06:31:00,
2013-02-08 00:42:00,25.0,20.0,30.37,North,-999,0.0,-999.0,82,-99.99,,,-99.99,,2013-02-08 06:42:00,
2013-02-08 00:52:00,25.0,20.0,30.40,North,-999,0.0,-999.0,82,-99.99,,,-99.99,,2013-02-08 06:52:00,
2013-02-08 01:01:00,25.0,20.0,30.40,North,-999,0.0,-999.0,82,-99.99,,,-99.99,,2013-02-08 07:01:00,
2013-02-08 01:11:00,25.0,20.0,30.40,North,-999,0.0,-999.0,82,-99.99,,,-99.99,,2013-02-08 07:11:00,
2013-02-08 01:21:00,24.0,19.0,30.40,North,-999,0.0,-999.0,82,-99.99,,,-99.99,,2013-02-08 07:21:00,
2013-02-08 01:32:00,24.0,19.0,30.40,North,-999,0.0,-999.0,82,-99.99,,,-99.99,,2013-02-08 07:32:00,
2013-02-08 01:42:00,24.0,20.0,30.40,North,-999,0.0,-999.0,83,-99.99,,,-99.99,,2013-02-08 07:42:00,
2013-02-08 01:52:00,24.0,20.0,30.40,North,-999,0.0,-999.0,83,-99.99,,,-99.99,,2013-02-08 07:52:00,
2013-02-08 02:01:00,24.0,20.0,30.41,North,-999,0.0,-999.0,83,-99.99,,,-99.99,,2013-02-08 08:01:00,
2013-02-08 02:11:00,24.0,20.0,30.41,North,-999,0.0,-999.0,83,-99.99,,,-99.99,,2013-02-08 08:11:00,
2013-02-08 02:21:00,24.0,20.0,30.41,North,-999,0.0,-999.0,83,-99.99,,,-99.99,,2013-02-08 08:21:00,
2013-02-08 02:32:00,24.0,20.0,30.41,North,-999,0.0,-999.0,83,-99.99,,,-99.99,,2013-02-08 08:32:00,
2013-02-08 02:42:00,24.0,20.0,30.41,North,-999,0.0,-999.0,83,-99.99,,,-99.99,,2013-02-08 08:42:00,
2013-02-08 02:52:00,24.0,20.0,30.42,North,-999,0.0,-999.0,84,-99.99,,,-99.99,,2013-02-08 08:52:00,
2013-02-08 03:03:00,24.0,20.0,30.42,North,-999,0.0,-999.0,84,-99.99,,,-99.99,,2013-02-08 09:03:00,
2013-02-08 03:11:00,24.0,20.0,30.42,North,-999,0.0,-999.0,84,-99.99,,,-99.99,,2013-02-08 09:11:00,
2013-02-08 03:21:00,24.0,20.0,30.41,North,-999,0.0,-999.0,84,-99.99,,,-99.99,,2013-02-08 09:21:00,
2013-02-08 03:31:00,23.0,19.0,30.41,North,-999,0.0,-999.0,84,-99.99,,,-99.99,,2013-02-08 09:31:00,
2013-02-08 03:42:00,23.0,19.0,30.41,North,-999,0.0,-999.0,84,-99.99,,,-99.99,,2013-02-08 09:42:00,
2013-02-08 03:52:00,23.0,18.0,30.41,North,-999,0.0,-999.0,82,-99.99,,,-99.99,,2013-02-08 09:52:00,
2013-02-08 04:01:00,23.0,17.0,30.42,North,-999,0.0,-999.0,79,-99.99,,,-99.99,,2013-02-08 10:01:00,
2013-02-08 04:11:00,23.0,17.0,30.42,North,-999,0.0,-999.0,79,-99.99,,,-99.99,,2013-02-08 10:11:00,
2013-02-08 04:22:00,22.0,17.0,30.41,North,-999,0.0,-999.0,80,-99.99,,,-99.99,,2013-02-08 10:22:00,
2013-02-08 04:31:00,21.0,16.0,30.41,North,-999,0.0,-999.0,80,-99.99,,,-99.99,,2013-02-08 10:31:00,
2013-02-08 04:41:00,21.0,16.0,30.41,North,-999,0.0,-999.0,80,-99.99,,,-99.99,,2013-02-08 10:41:00,
2013-02-08 04:52:00,21.0,16.0,30.42,North,-999,0.0,-999.0,79,-99.99,,,-99.99,,2013-02-08 10:52:00,
2013-02-08 05:01:00,21.0,16.0,30.42,North,-999,0.0,-999.0,79,-99.99,,,-99.99,,2013-02-08 11:01:00,
2013-02-08 05:11:00,21.0,16.0,30.42,North,-999,0.0,-999.0,79,-99.99,,,-99.99,,2013-02-08 11:11:00,
2013-02-08 05:21:00,19.0,14.0,30.44,North,-999,0.0,-999.0,80,-99.99,,,-99.99,,2013-02-08 11:21:00,
2013-02-08 05:32:00,19.0,14.0,30.45,North,-999,0.0,-999.0,80,-99.99,,,-99.99,,2013-02-08 11:32:00,
2013-02-08 05:42:00,19.0,14.0,30.45,North,-999,0.0,-999.0,80,-99.99,,,-99.99,,2013-02-08 11:42:00,
2013-02-08 05:52:00,18.0,13.0,30.44,North,-999,0.0,-999.0,81,-99.99,,,-99.99,,2013-02-08 11:52:00,
2013-02-08 06:01:00,18.0,13.0,30.44,North,-999,0.0,-999.0,82,-99.99,,,-99.99,,2013-02-08 12:01:00,
2013-02-08 06:11:00,18.0,13.0,30.44,North,-999,0.0,-999.0,82,-99.99,,,-99.99,,2013-02-08 12:11:00,
2013-02-08 06:22:00,17.0,12.0,30.45,North,-999,0.0,-999.0,82,-99.99,,,-99.99,,2013-02-08 12:22:00,
2013-02-08 06:33:00,17.0,13.0,30.45,North,-999,0.0,-999.0,83,-99.99,,,-99.99,,2013-02-08 12:33:00,
2013-02-08 06:42:00,17.0,13.0,30.45,North,-999,0.0,-999.0,83,-99.99,,,-99.99,,2013-02-08 12:42:00,
2013-02-08 06:52:00,17.0,13.0,30.45,North,-999,0.0,-999.0,83,-99.99,,,-99.99,,2013-02-08 12:52:00,
2013-02-08 07:01:00,16.0,12.0,30.46,North,-999,0.0,-999.0,85,-99.99,,,-99.99,,2013-02-08 13:01:00,
2013-02-08 07:11:00,16.0,12.0,30.46,North,-999,0.0,-999.0,85,-99.99,,,-99.99,,2013-02-08 13:11:00,
2013-02-08 07:22:00,16.0,12.0,30.46,North,-999,0.0,-999.0,85,-99.99,,,-99.99,,2013-02-08 13:22:00,
2013-02-08 07:32:00,16.0,12.0,30.46,North,-999,0.0,-999.0,85,-99.99,,,-99.99,,2013-02-08 13:32:00,
2013-02-08 07:42:00,16.0,12.0,30.46,North,-999,0.0,-999.0,85,-99.99,,,-99.99,,2013-02-08 13:42:00,
2013-02-08 07:52:00,16.0,12.0,30.46,North,-999,0.0,-999.0,85,-99.99,,,-99.99,,2013-02-08 13:52:00,
2013-02-08 08:02:00,16.0,12.0,30.47,North,-999,0.0,-999.0,85,-99.99,,,-99.99,,2013-02-08 14:02:00,
2013-02-08 08:11:00,16.0,12.0,30.47,North,-999,0.0,-999.0,85,-99.99,,,-99.99,,2013-02-08 14:11:00,
2013-02-08 08:21:00,17.0,13.0,30.46,North,-999,0.0,-999.0,85,-99.99,,,-99.99,,2013-02-08 14:21:00,
2013-02-08 08:32:00,17.0,13.0,30.46,North,-999,0.0,-999.0,85,-99.99,,,-99.99,,2013-02-08 14:32:00,
2013-02-08 08:42:00,17.0,13.0,30.46,North,-999,0.0,-999.0,85,-99.99,,,-99.99,,2013-02-08 14:42:00,
2013-02-08 08:52:00,18.0,14.0,30.48,North,-999,0.0,-999.0,85,-99.99,,,-99.99,,2013-02-08 14:52:00,
2013-02-08 09:02:00,18.0,14.0,30.48,North,-999,0.0,-999.0,85,-99.99,,,-99.99,,2013-02-08 15:02:00,
2013-02-08 09:11:00,18.0,14.0,30.48,North,-999,0.0,-999.0,85,-99.99,,,-99.99,,2013-02-08 15:11:00,
2013-02-08 09:22:00,18.0,14.0,30.48,North,-999,0.0,-999.0,85,-99.99,,,-99.99,,2013-02-08 15:22:00,
2013-02-08 09:32:00,20.0,16.0,30.49,North,-999,0.0,-999.0,83,-99.99,,,-99.99,,2013-02-08 15:32:00,
2013-02-08 09:42:00,20.0,16.0,30.49,North,-999,0.0,-999.0,83,-99.99,,,-99.99,,2013-02-08 15:42:00,
2013-02-08 09:52:00,21.0,16.0,30.48,North,-999,0.0,-999.0,82,-99.99,,,-99.99,,2013-02-08 15:52:00,
2013-02-08 10:01:00,21.0,16.0,30.48,North,-999,0.0,-999.0,81,-99.99,,,-99.99,,2013-02-08 16:01:00,
2013-02-08 10:11:00,21.0,16.0,30.48,North,-999,0.0,-999.0,81,-99.99,,,-99.99,,2013-02-08 16:11:00,
2013-02-08 10:22:00,22.0,17.0,30.49,North,-999,0.0,-999.0,81,-99.99,,,-99.99,,2013-02-08 16:22:00,
2013-02-08 10:32:00,22.0,17.0,30.49,North,-999,0.0,-999.0,80,-99.99,,,-99.99,,2013-02-08 16:32:00,
2013-02-08 10:42:00,22.0,17.0,30.49,North,-999,0.0,-999.0,80,-99.99,,,-99.99,,2013-02-08 16:42:00,
2013-02-08 10:52:00,23.0,17.0,30.49,North,-999,0.0,-999.0,79,-99.99,,,-99.99,,2013-02-08 16:52:00,
2013-02-08 11:03:00,23.0,17.0,30.49,North,-999,0.0,-999.0,79,-99.99,,,-99.99,,2013-02-08 17:03:00,
2013-02-08 11:12:00,23.0,17.0,30.49,North,-999,0.0,-999.0,79,-99.99,,,-99.99,,2013-02-08 17:12:00,
2013-02-08 11:22:00,24.0,18.0,30.48,North,-999,0.0,-999.0,78,-99.99,,,-99.99,,2013-02-08 17:22:00,
2013-02-08 11:32:00,24.0,18.0,30.48,North,-999,0.0,-999.0,79,-99.99,,,-99.99,,2013-02-08 17:32:00,
2013-02-08 11:42:00,24.0,18.0,30.48,North,-999,0.0,-999.0,79,-99.99,,,-99.99,,2013-02-08 17:42:00,
2013-02-08 11:53:00,24.0,18.0,30.48,North,-999,0.0,-999.0,78,-99.99,,,-99.99,,2013-02-08 17:53:00,
2013-02-08 12:02:00,24.0,18.0,30.49,North,-999,0.0,-999.0,78,-99.99,,,-99.99,,2013-02-08 18:02:00,
2013-02-08 12:12:00,24.0,18.0,30.49,North,-999,0.0,-999.0,78,-99.99,,,-99.99,,2013-02-08 18:12:00,
2013-02-08 12:24:00,24.0,18.0,30.48,North,-999,0.0,-999.0,78,-99.99,,,-99.99,,2013-02-08 18:24:00,
2013-02-08 12:34:00,25.0,19.0,30.48,North,-999,0.0,-999.0,78,-99.99,,,-99.99,,2013-02-08 18:34:00,
2013-02-08 12:43:00,25.0,19.0,30.48,North,-999,0.0,-999.0,78,-99.99,,,-99.99,,2013-02-08 18:43:00,
2013-02-08 12:52:00,25.0,19.0,30.48,North,-999,0.0,-999.0,77,-99.99,,,-99.99,,2013-02-08 18:52:00,
2013-02-08 13:02:00,25.0,19.0,30.48,North,-999,0.0,-999.0,77,-99.99,,,-99.99,,2013-02-08 19:02:00,
2013-02-08 13:11:00,25.0,19.0,30.48,North,-999,0.0,-999.0,77,-99.99,,,-99.99,,2013-02-08 19:11:00,
2013-02-08 13:22:00,25.0,19.0,30.47,North,-999,0.0,-999.0,76,-99.99,,,-99.99,,2013-02-08 19:22:00,
2013-02-08 13:32:00,25.0,18.0,30.47,North,-999,0.0,-999.0,75,-99.99,,,-99.99,,2013-02-08 19:32:00,
2013-02-08 13:42:00,25.0,18.0,30.47,North,-999,0.0,-999.0,75,-99.99,,,-99.99,,2013-02-08 19:42:00,
2013-02-08 13:52:00,26.0,19.0,30.46,North,-999,0.0,-999.0,74,-99.99,,,-99.99,,2013-02-08 19:52:00,
2013-02-08 14:02:00,26.0,19.0,30.45,North,-999,0.0,-999.0,74,-99.99,,,-99.99,,2013-02-08 20:02:00,
2013-02-08 14:11:00,26.0,19.0,30.45,North,-999,0.0,-999.0,74,-99.99,,,-99.99,,2013-02-08 20:11:00,
2013-02-08 14:22:00,26.0,19.0,30.44,North,-999,0.0,-999.0,74,-99.99,,,-99.99,,2013-02-08 20:22:00,
2013-02-08 14:32:00,26.0,19.0,30.44,North,-999,0.0,-999.0,74,-99.99,,,-99.99,,2013-02-08 20:32:00,
2013-02-08 14:42:00,26.0,19.0,30.44,North,-999,0.0,-999.0,74,-99.99,,,-99.99,,2013-02-08 20:42:00,
2013-02-08 14:52:00,26.0,19.0,30.44,North,-999,0.0,-999.0,74,-99.99,,,-99.99,,2013-02-08 20:52:00,
2013-02-08 15:02:00,25.0,18.0,30.44,North,-999,0.0,-999.0,75,-99.99,,,-99.99,,2013-02-08 21:02:00,
2013-02-08 15:11:00,25.0,18.0,30.44,North,-999,0.0,-999.0,75,-99.99,,,-99.99,,2013-02-08 21:11:00,
2013-02-08 15:22:00,25.0,19.0,30.43,North,-999,0.0,-999.0,76,-99.99,,,-99.99,,2013-02-08 21:22:00,
2013-02-08 15:32:00,25.0,18.0,30.43,North,-999,0.0,-999.0,75,-99.99,,,-99.99,,2013-02-08 21:32:00,
2013-02-08 15:42:00,25.0,18.0,30.43,North,-999,0.0,-999.0,75,-99.99,,,-99.99,,2013-02-08 21:42:00,
2013-02-08 15:52:00,25.0,19.0,30.43,North,-999,0.0,-999.0,76,-99.99,,,-99.99,,2013-02-08 21:52:00,
2013-02-08 16:01:00,25.0,19.0,30.42,North,-999,0.0,-999.0,76,-99.99,,,-99.99,,2013-02-08 22:01:00,
2013-02-08 16:11:00,25.0,19.0,30.42,North,-999,0.0,-999.0,76,-99.99,,,-99.99,,2013-02-08 22:11:00,
2013-02-08 16:22:00,25.0,19.0,30.42,North,-999,0.0,-999.0,76,-99.99,,,-99.99,,2013-02-08 22:22:00,
2013-02-08 16:32:00,24.0,18.0,30.42,North,-999,0.0,-999.0,77,-99.99,,,-99.99,,2013-02-08 22:32:00,
2013-02-08 16:42:00,24.0,18.0,30.42,North,-999,0.0,-999.0,77,-99.99,,,-99.99,,2013-02-08 22:42:00,
2013-02-08 16:52:00,24.0,18.0,30.41,North,-999,0.0,-999.0,78,-99.99,,,-99.99,,2013-02-08 22:52:00,
2013-02-08 17:01:00,24.0,18.0,30.41,North,-999,0.0,-999.0,78,-99.99,,,-99.99,,2013-02-08 23:01:00,
2013-02-08 17:11:00,24.0,18.0,30.41,North,-999,0.0,-999.0,78,-99.99,,,-99.99,,2013-02-08 23:11:00,
2013-02-08 17:21:00,23.0,17.0,30.40,North,-999,0.0,-999.0,78,-99.99,,,-99.99,,2013-02-08 23:21:00,
2013-02-08 17:31:00,23.0,17.0,30.39,North,-999,0.0,-999.0,78,-99.99,,,-99.99,,2013-02-08 23:31:00,
2013-02-08 17:42:00,23.0,17.0,30.39,North,-999,0.0,-999.0,78,-99.99,,,-99.99,,2013-02-08 23:42:00,
2013-02-08 17:52:00,22.0,17.0,30.40,North,-999,0.0,-999.0,80,-99.99,,,-99.99,,2013-02-08 23:52:00,
2013-02-08 18:02:00,22.0,17.0,30.39,North,-999,0.0,-999.0,81,-99.99,,,-99.99,,2013-02-09 00:02:00,
2013-02-08 18:11:00,22.0,17.0,30.39,North,-999,0.0,-999.0,81,-99.99,,,-99.99,,2013-02-09 00:11:00,
2013-02-08 18:21:00,22.0,17.0,30.38,North,-999,0.0,-999.0,81,-99.99,,,-99.99,,2013-02-09 00:21:00,
2013-02-08 18:32:00,22.0,17.0,30.38,North,-999,0.0,-999.0,81,-99.99,,,-99.99,,2013-02-09 00:32:00,
2013-02-08 18:42:00,22.0,17.0,30.38,North,-999,0.0,-999.0,81,-99.99,,,-99.99,,2013-02-09 00:42:00,
2013-02-08 18:52:00,22.0,17.0,30.38,North,-999,0.0,-999.0,81,-99.99,,,-99.99,,2013-02-09 00:52:00,
2013-02-08 19:01:00,22.0,17.0,30.38,North,-999,0.0,-999.0,82,-99.99,,,-99.99,,2013-02-09 01:01:00,
2013-02-08 19:11:00,22.0,17.0,30.38,North,-999,0.0,-999.0,82,-99.99,,,-99.99,,2013-02-09 01:11:00,
2013-02-08 19:21:00,22.0,17.0,30.38,North,-999,0.0,-999.0,82,-99.99,,,-99.99,,2013-02-09 01:21:00,
2013-02-08 19:32:00,22.0,18.0,30.38,North,-999,0.0,-999.0,83,-99.99,,,-99.99,,2013-02-09 01:32:00,
2013-02-08 19:41:00,22.0,18.0,30.38,North,-999,0.0,-999.0,83,-99.99,,,-99.99,,2013-02-09 01:41:00,
2013-02-08 19:52:00,22.0,18.0,30.38,North,-999,0.0,-999.0,83,-99.99,,,-99.99,,2013-02-09 01:52:00,
2013-02-08 20:01:00,22.0,18.0,30.38,North,-999,0.0,-999.0,83,-99.99,,,-99.99,,2013-02-09 02:01:00,
2013-02-08 20:11:00,22.0,18.0,30.38,North,-999,0.0,-999.0,83,-99.99,,,-99.99,,2013-02-09 02:11:00,
2013-02-08 20:21:00,22.0,18.0,30.37,North,-999,0.0,-999.0,84,-99.99,,,-99.99,,2013-02-09 02:21:00,
2013-02-08 20:32:00,22.0,18.0,30.36,North,-999,0.0,-999.0,84,-99.99,,,-99.99,,2013-02-09 02:32:00,
2013-02-08 20:42:00,22.0,18.0,30.36,North,-999,0.0,-999.0,84,-99.99,,,-99.99,,2013-02-09 02:42:00,
2013-02-08 20:52:00,23.0,19.0,30.36,North,-999,0.0,-999.0,85,-99.99,,,-99.99,,2013-02-09 02:52:00,
2013-02-08 21:01:00,23.0,19.0,30.35,North,-999,0.0,-999.0,85,-99.99,,,-99.99,,2013-02-09 03:01:00,
2013-02-08 21:11:00,23.0,19.0,30.35,North,-999,0.0,-999.0,85,-99.99,,,-99.99,,2013-02-09 03:11:00,
2013-02-08 21:21:00,23.0,19.0,30.35,North,-999,0.0,-999.0,85,-99.99,,,-99.99,,2013-02-09 03:21:00,
2013-02-08 21:32:00,23.0,19.0,30.35,North,-999,0.0,-999.0,85,-99.99,,,-99.99,,2013-02-09 03:32:00,
2013-02-08 21:42:00,23.0,19.0,30.35,North,-999,0.0,-999.0,85,-99.99,,,-99.99,,2013-02-09 03:42:00,
2013-02-08 21:53:00,23.0,19.0,30.35,North,-999,0.0,-999.0,85,-99.99,,,-99.99,,2013-02-09 03:53:00,
2013-02-08 22:02:00,24.0,20.0,30.35,North,-999,0.0,-999.0,85,-99.99,,,-99.99,,2013-02-09 04:02:00,
2013-02-08 22:12:00,24.0,20.0,30.35,North,-999,0.0,-999.0,85,-99.99,,,-99.99,,2013-02-09 04:12:00,
2013-02-08 22:23:00,24.0,20.0,30.35,North,-999,0.0,-999.0,85,-99.99,,,-99.99,,2013-02-09 04:23:00,
2013-02-08 22:32:00,24.0,20.0,30.35,North,-999,0.0,-999.0,85,-99.99,,,-99.99,,2013-02-09 04:32:00,
2013-02-08 22:42:00,24.0,20.0,30.35,North,-999,0.0,-999.0,85,-99.99,,,-99.99,,2013-02-09 04:42:00,
2013-02-08 22:52:00,24.0,20.0,30.35,North,-999,0.0,-999.0,85,-99.99,,,-99.99,,2013-02-09 04:52:00,
2013-02-08 23:02:00,24.0,20.0,30.34,North,-999,0.0,-999.0,85,-99.99,,,-99.99,,2013-02-09 05:02:00,
2013-02-08 23:12:00,24.0,20.0,30.34,North,-999,0.0,-999.0,85,-99.99,,,-99.99,,2013-02-09 05:12:00,
2013-02-08 23:22:00,25.0,21.0,30.34,North,-999,0.0,-999.0,85,-99.99,,,-99.99,,2013-02-09 05:22:00,
2013-02-08 23:31:00,25.0,21.0,30.33,North,-999,0.0,-999.0,85,-99.99,,,-99.99,,2013-02-09 05:31:00,
2013-02-08 23:42:00,25.0,21.0,30.33,North,-999,0.0,-999.0,85,-99.99,,,-99.99,,2013-02-09 05:42:00,
2013-02-08 23:52:00,25.0,21.0,30.33,North,-999,0.0,-999.0,85,-99.99,,,-99.99,,2013-02-09 05:52:00,